| time (UTC) | temp C | wind direction | speed KPH | gust KPH | rain 1hr cm | rain 24hr cm | rain mn cm | humidity % | barometer mb |
| 20260502190027 | 16 | 161 | 8.0 | 12.9 | 0.00 | 0.00 | 0.00 | 86 | 1015.6 |
| 20260502184515 | 16 | 121 | 6.4 | 14.5 | 0.00 | 0.00 | 0.00 | 85 | 1015.6 |
| 20260502183020 | 17 | 146 | 4.8 | 14.5 | 0.00 | 0.00 | 0.00 | 85 | 1015.7 |
| 20260502181529 | 17 | 147 | 4.8 | 14.5 | 0.00 | 0.00 | 0.00 | 82 | 1015.8 |
| 20260502163012 | 18 | 160 | 12.9 | 17.7 | 0.00 | 0.00 | 0.00 | 79 | 1016.1 |
| 20260502161511 | 18 | 146 | 11.3 | 17.7 | 0.00 | 0.00 | 0.00 | 78 | 1016.1 |
| 20260502151512 | 19 | 159 | 9.7 | 19.3 | 0.00 | 0.00 | 0.00 | 75 | 1016.4 |
| 20260502123018 | 19 | 92 | 14.5 | 20.9 | 0.00 | 0.00 | 0.00 | 67 | 1017.5 |
| 20260502121511 | 19 | 117 | 9.7 | 22.5 | 0.00 | 0.00 | 0.00 | 69 | 1017.7 |
| 20260502114519 | 19 | 178 | 11.3 | 19.3 | 0.00 | 0.00 | 0.00 | 58 | 1017.8 |
| 20260502113016 | 18 | 121 | 12.9 | 17.7 | 0.00 | 0.00 | 0.00 | 61 | 1017.8 |
| 20260502111520 | 18 | 128 | 11.3 | 17.7 | 0.00 | 0.00 | 0.00 | 65 | 1017.9 |
| 20260502110014 | 19 | 143 | 6.4 | 19.3 | 0.00 | 0.00 | 0.00 | 65 | 1018.0 |
| 20260502104518 | 19 | 138 | 12.9 | 17.7 | 0.00 | 0.00 | 0.00 | 62 | 1018.0 |
| 20260502103019 | 19 | 132 | 11.3 | 17.7 | 0.00 | 0.00 | 0.00 | 58 | 1018.0 |
| 20260502101518 | 18 | 112 | 12.9 | 16.1 | 0.00 | 0.00 | 0.00 | 55 | 1017.9 |
| 20260502091521 | 18 | 114 | 8.0 | 14.5 | 0.00 | 0.00 | 0.00 | 66 | 1017.7 |
| 20260502071522 | 15 | 67 | 3.2 | 6.4 | 0.00 | 0.00 | 0.00 | 87 | 1017.6 |
| 20260502070032 | 15 | 76 | 0.0 | 4.8 | 0.00 | 0.00 | 0.00 | 88 | 1017.6 |
| 20260502064510 | 15 | 74 | 1.6 | 4.8 | 0.00 | 0.00 | 0.00 | 88 | 1017.7 |
| 20260502063016 | 15 | 78 | 0.0 | 6.4 | 0.00 | 0.00 | 0.00 | 88 | 1017.5 |
| 20260502061523 | 15 | 72 | 1.6 | 9.7 | 0.00 | 0.00 | 0.00 | 88 | 1017.6 |
| 20260502060024 | 15 | 86 | 4.8 | 6.4 | 0.00 | 0.00 | 0.00 | 88 | 1017.6 |
| 20260502054508 | 15 | 96 | 0.0 | 3.2 | 0.00 | 0.00 | 0.00 | 87 | 1017.3 |
| 20260502053014 | 15 | 96 | 1.6 | 6.4 | 0.00 | 0.00 | 0.00 | 87 | 1017.2 |
| 20260502051527 | 15 | 84 | 4.8 | 8.0 | 0.00 | 0.00 | 0.00 | 87 | 1017.1 |
| 20260502050024 | 15 | 64 | 1.6 | 4.8 | 0.00 | 0.00 | 0.00 | 87 | 1017.1 |
| 20260502044524 | 15 | 64 | 0.0 | 4.8 | 0.00 | 0.00 | 0.00 | 86 | 1017.1 |
| 20260502043015 | 15 | 64 | 0.0 | 4.8 | 0.00 | 0.00 | 0.00 | 86 | 1017.1 |
| 20260502041519 | 15 | 64 | 1.6 | 6.4 | 0.00 | 0.00 | 0.00 | 86 | 1017.3 |
| 20260502040033 | 15 | 64 | 1.6 | 6.4 | 0.00 | 0.00 | 0.00 | 86 | 1017.4 |
| 20260502034524 | 15 | 55 | 1.6 | 6.4 | 0.00 | 0.00 | 0.00 | 85 | 1017.2 |
| 20260502033029 | 15 | 55 | 1.6 | 8.0 | 0.00 | 0.00 | 0.00 | 85 | 1017.4 |
| 20260502031518 | 15 | 83 | 1.6 | 4.8 | 0.00 | 0.00 | 0.00 | 85 | 1017.4 |
| 20260502030022 | 15 | 90 | 3.2 | 9.7 | 0.00 | 0.00 | 0.00 | 85 | 1017.7 |
| 20260502024538 | 15 | 175 | 3.2 | 3.2 | 0.00 | 0.00 | 0.00 | 85 | 1017.7 |
| 20260502023026 | 15 | 175 | 3.2 | 4.8 | 0.00 | 0.00 | 0.00 | 85 | 1017.6 |
| 20260502021531 | 15 | 202 | 0.0 | 0.0 | 0.00 | 0.00 | 0.00 | 85 | 1017.8 |
| 20260502020020 | 15 | 202 | 0.0 | 0.0 | 0.00 | 0.00 | 0.00 | 85 | 1017.8 |
| 20260502014534 | 15 | 202 | 0.0 | 0.0 | 0.00 | 0.00 | 0.00 | 85 | 1017.9 |
| 20260502013026 | 15 | 202 | 1.6 | 3.2 | 0.00 | 0.00 | 0.00 | 85 | 1018.0 |
| 20260502011526 | 15 | 202 | 0.0 | 3.2 | 0.00 | 0.00 | 0.00 | 85 | 1018.3 |
| 20260502010018 | 15 | 202 | 0.0 | 3.2 | 0.00 | 0.00 | 0.00 | 85 | 1018.4 |
| 20260502004520 | 15 | 202 | 1.6 | 3.2 | 0.00 | 0.00 | 0.00 | 85 | 1018.5 |
| 20260502003028 | 15 | 202 | 0.0 | 3.2 | 0.00 | 0.00 | 0.00 | 85 | 1018.9 |
| 20260502001528 | 15 | 202 | 0.0 | 3.2 | 0.00 | 0.00 | 0.00 | 85 | 1019.0 |
| 20260502000028 | 15 | 202 | 1.6 | 3.2 | 0.00 | 0.00 | 0.00 | 84 | 1018.9 |
| 20260501234523 | 15 | 202 | 0.0 | 3.2 | 0.00 | 0.00 | 0.00 | 84 | 1018.9 |
| 20260501233020 | 15 | 202 | 1.6 | 3.2 | 0.00 | 0.00 | 0.00 | 84 | 1018.9 |
| 20260501231526 | 15 | 202 | 0.0 | 4.8 | 0.00 | 0.00 | 0.00 | 83 | 1019.1 |
| 20260501230010 | 15 | 202 | 3.2 | 8.0 | 0.00 | 0.00 | 0.00 | 83 | 1019.0 |
| 20260501224518 | 15 | 185 | 1.6 | 9.7 | 0.00 | 0.00 | 0.00 | 82 | 1019.3 |
| 20260501223032 | 15 | 213 | 3.2 | 9.7 | 0.00 | 0.00 | 0.00 | 82 | 1019.2 |
| 20260501221507 | 15 | 186 | 3.2 | 8.0 | 0.00 | 0.00 | 0.00 | 82 | 1019.3 |
| 20260501220016 | 16 | 180 | 0.0 | 4.8 | 0.00 | 0.00 | 0.00 | 82 | 1019.4 |
| 20260501214517 | 15 | 177 | 3.2 | 8.0 | 0.00 | 0.00 | 0.00 | 81 | 1019.5 |
| 20260501213019 | 16 | 180 | 3.2 | 8.0 | 0.00 | 0.00 | 0.00 | 80 | 1019.3 |
| 20260501211525 | 16 | 195 | 1.6 | 4.8 | 0.00 | 0.00 | 0.00 | 80 | 1019.3 |
| 20260501210009 | 16 | 195 | 1.6 | 4.8 | 0.00 | 0.00 | 0.00 | 80 | 1019.1 |
| 20260501204512 | 16 | 194 | 3.2 | 4.8 | 0.00 | 0.00 | 0.00 | 79 | 1019.1 |
| 20260501203035 | 16 | 194 | 1.6 | 8.0 | 0.00 | 0.00 | 0.00 | 79 | 1018.9 |
| 20260501201524 | 16 | 194 | 3.2 | 6.4 | 0.00 | 0.00 | 0.00 | 78 | 1018.9 |
| 20260501200026 | 16 | 196 | 3.2 | 9.7 | 0.00 | 0.00 | 0.00 | 77 | 1018.7 |
| 20260501194516 | 16 | 182 | 4.8 | 11.3 | 0.00 | 0.00 | 0.00 | 76 | 1018.8 |
| 20260501193015 | 16 | 180 | 6.4 | 8.0 | 0.00 | 0.00 | 0.00 | 75 | 1018.4 |
| 20260501191518 | 16 | 187 | 4.8 | 8.0 | 0.00 | 0.00 | 0.00 | 75 | 1018.3 |